Regional Weather Roundup
Issued by NWS New Orleans/Baton Rouge, LA

Home | Current Version | Previous Version | Graphics & Text | Print | Product List | Glossary On
Versions: 1 2 3 4 5 6 7 8 9 10 11 12 13 14 15 16 17 18 19 20 21 22 23 24 25 26 27 28 29 30 31 32 33 34 35 36 37 38 39 40 41 42 43 44 45 46 47 48 49 50
620
ASUS44 KLIX 230805
RWRLIX
NEW ORLEANS REGIONAL WEATHER ROUNDUP
NATIONAL WEATHER SERVICE NEW ORLEANS LA
300 AM CDT SAT AUG 23 2014

NOTE: "FAIR" INDICATES FEW OR NO CLOUDS BELOW 12,000 FEET WITH NO
      SIGNIFICANT WEATHER AND/OR OBSTRUCTIONS TO VISIBILITY.
      SKY/WX - SKY CONDITION AND SIGNIFICANT WEATHER.
      TMP - AIR TEMPERATURE.     DP    - DEWPOINT TEMPERATURE.
      RH  - RELATIVE HUMIDITY.   PRES  - PRESSURE.
      HI  - HEAT INDEX.          WCI   - WIND CHILL INDEX.

*  THESE STATIONS ARE NOT NWS OR FAA STATIONS AND ARE NOT UNDER
   NWS QUALITY CONTROL.

LAZ038-040-048-061>063-065>067-069-230900-
SOUTHEAST LOUISIANA

CITY           SKY/WX    TMP DP  RH WIND       PRES   REMARKS
N.O. AUDUBON     N/A     82  78  89 MISG        N/A
N.O. INTL ARPT CLEAR     81  76  84 W6        30.00F
N.O. LAKEFRONT CLEAR     84  76  76 SW8       30.00F
N.O. DOWNTOWN* PTSUNNY   84  73  70 SW5       30.01F
SLIDELL        CLEAR     78  74  87 CALM      29.99F
BATON ROUGE    CLEAR     79  75  87 CALM      30.01S
BOOTHVILLE     CLEAR     82  77  84 W3        30.01S
BELLE CHASSE   CLEAR     79  74  84 W3        30.00F
BOGALUSA*        N/A     78  74  86 CALM      30.01S
GALLIANO*      NOT AVBL
NEW ROADS*       N/A     75  75  98 CALM      30.01S FOG
GONZALES*        N/A     78  78 100 CALM      30.00S
HAMMOND*       CLEAR     77  73  88 CALM      30.02S
HOUMA*           N/A     77  74  90 CALM      30.00F FOG
PORT FOURCHON* MOSUNNY   86  75  70 CALM      30.02S HX  95

$$

MSZ070-080>082-230900-
SOUTHERN MISSISSIPPI

CITY           SKY/WX    TMP DP  RH WIND       PRES   REMARKS
MCCOMB         CLEAR     76  73  91 CALM      30.01F
GULFPORT       CLEAR     80  76  87 W3        29.98F
BILOXI         CLEAR     82  77  83 CALM      29.99S
PASCAGOULA     CLEAR     75  74  96 CALM      29.98F FOG

$$

COASTAL OBSERVATIONS
LAKE AND NEARSHORE STATIONS

STATION/POSITION TIME  TEMP    WIND        PRES    WAVE
                       AIR SEA DIR/SP/G            HT/PER
                 (UTC) (F)     (DEG/KT/KT) (MB)    (FT/S)
PASCAGOULA       0800   86     280/  4/  8 1014.8
WAVELAND YACHT   0800   83     260/  6/  7 1014.9
GRAND ISLE       0800   85 90  260/  4/  5 1016.7
SOUTHWEST PASS   0800   84 88  290/  4/  6 1016.3
NEW CANAL        0800   84 85  240/  4/  5 1016.3
SHELL BEACH      0800   82 82  250/  8/  9 1015.7

OFFSHORE STATIONS

STATION/POSITION TIME  TEMP    WIND        PRES    WAVE
                       AIR SEA DIR/SP/G            HT/PER
                 (UTC) (F)     (DEG/KT/KT) (MB)    (FT/S)
64 S DAUPHIN ISL 0750   86 89  280/  8/  8 1015.9

$$




USA.gov is the U.S. government's official web portal to all federal, state and local government web resources and services.